Weather History for Marshfield, WI

Change the Weather History Date:

Tuesday, December 3, 2013

  Actual Average Record
Temperature  
Mean Temperature 30 °F -  
Max Temperature 33 °F 29 °F 59 °F (1962)
Min Temperature 28 °F 13 °F -23 °F (1940)
Degree Days  
Heating Degree Days 34    
Moisture  
Dew Point 29 °F    
Average Humidity 91    
Maximum Humidity 100    
Minimum Humidity 86    
Precipitation  
Precipitation 0.07 in - - ()
Sea Level Pressure  
Sea Level Pressure 29.75 in    
Wind  
Wind Speed 13 mph (East)    
Max Wind Speed 18 mph    
Max Gust Speed 28 mph    
Visibility 3 miles    
Events Fog , Rain , Snow    
Averages and records for this station are not official NWS values.
T = Trace of Precipitation, MM = Missing Value Source: NWS Daily Summary

Daily Weather History Graph

Daily Weather History Graph

Search for Another Location

Airport:

Trip Planner

Search our weather history database for the weather conditions in past years. The results will help you decide how hot, cold, wet, or windy it might be!

Date:

Astronomy

Dec. 03, 2013 Rise Set
Actual Time 7:20 AM CST 4:21 PM CST
Civil Twilight 6:47 AM CST 4:54 PM CST
Nautical Twilight 6:10 AM CST 5:30 PM CST
Astronomical Twilight 5:35 AM CST 6:05 PM CST
Moon 7:48 AM CST (12/3) 5:25 PM CST (12/3)
Length of Visible Light 10h 07m
Length of Day
9h 01m
New Moon, 1% of the Moon is Illuminated
Dec 3
New Moon
Dec 9
First Quarter
Dec 17
Full
Dec 25
Last Quarter
Jan 1
New

Hourly Weather History & Observations

Time (CST) Temp. Windchill Dew Point Humidity Pressure Visibility Wind Dir Wind Speed Gust Speed Precip Events Conditions
12:44 AM 32.0 °F 22.5 °F 30.2 °F 93% 29.70 in 2.0 mi ESE 12.7 mph - 0.01 in   Overcast
12:54 AM 32.0 °F 23.0 °F 30.0 °F 92% 29.74 in 2.0 mi ESE 11.5 mph - 0.01 in Rain Light Freezing Rain
1:07 AM 32.0 °F 22.5 °F 30.2 °F 93% 29.70 in 1.5 mi ESE 12.7 mph - 0.00 in Rain Light Freezing Rain
1:49 AM 33.8 °F 23.9 °F 30.2 °F 87% 29.69 in 2.0 mi SE 15.0 mph 21.9 mph 0.00 in Rain Light Freezing Rain
1:54 AM 33.1 °F 23.4 °F 30.9 °F 92% 29.73 in 2.0 mi SE 13.8 mph - 0.00 in Rain Light Freezing Rain
2:54 AM 33.1 °F 23.9 °F 30.9 °F 92% 29.74 in 2.5 mi SE 12.7 mph - 0.00 in Rain Light Freezing Rain
3:03 AM 33.8 °F 24.8 °F 30.2 °F 87% 29.69 in 3.0 mi SE 12.7 mph 19.6 mph 0.00 in Rain Light Freezing Rain
3:25 AM 33.8 °F 24.3 °F 30.2 °F 87% 29.69 in 2.5 mi SE 13.8 mph - 0.00 in Rain Light Freezing Rain
3:36 AM 33.8 °F 23.9 °F 30.2 °F 87% 29.69 in 2.5 mi ESE 15.0 mph 20.7 mph 0.00 in   Overcast
3:54 AM 33.1 °F 23.9 °F 30.9 °F 92% 29.73 in 3.0 mi ESE 12.7 mph - 0.00 in   Overcast
4:54 AM 33.1 °F 23.4 °F 30.9 °F 92% 29.73 in 5.0 mi ESE 13.8 mph - N/A   Overcast
5:54 AM 33.1 °F 23.0 °F 30.9 °F 92% 29.73 in 3.0 mi ESE 15.0 mph - N/A   Overcast
6:51 AM 33.8 °F 25.3 °F 30.2 °F 87% 29.70 in 3.0 mi ESE 11.5 mph - N/A   Overcast
6:54 AM 33.1 °F 25.5 °F 30.9 °F 92% 29.75 in 3.0 mi ESE 9.2 mph - N/A   Overcast
7:14 AM 33.8 °F 25.8 °F 30.2 °F 87% 29.71 in 2.5 mi ESE 10.4 mph - N/A   Overcast
7:44 AM 33.8 °F 25.3 °F 30.2 °F 87% 29.71 in 1.2 mi ESE 11.5 mph - N/A   Overcast
7:54 AM 33.1 °F 23.0 °F 30.9 °F 92% 29.75 in 1.2 mi ESE 15.0 mph - N/A   Overcast
8:54 AM 33.1 °F 23.9 °F 30.9 °F 92% 29.76 in 1.8 mi East 12.7 mph - N/A   Overcast
9:03 AM 33.8 °F 23.5 °F 30.2 °F 87% 29.72 in 2.0 mi East 16.1 mph 20.7 mph N/A   Overcast
9:51 AM 32.0 °F 20.8 °F 30.2 °F 93% 29.73 in 2.0 mi East 17.3 mph 24.2 mph 0.00 in Rain Light Freezing Rain
9:54 AM 32.0 °F 22.1 °F 30.0 °F 92% 29.78 in 2.5 mi East 13.8 mph 24.2 mph 0.00 in Rain Light Freezing Rain
10:42 AM 32.0 °F 22.1 °F 30.2 °F 93% 29.75 in 2.5 mi ESE 13.8 mph 24.2 mph 0.00 in   Overcast
10:54 AM 32.0 °F 22.1 °F 30.0 °F 92% 29.79 in 2.5 mi East 13.8 mph 21.9 mph 0.00 in   Overcast
11:19 AM 32.0 °F 22.1 °F 30.2 °F 93% 29.75 in 3.0 mi East 13.8 mph 23.0 mph 0.00 in   Overcast
11:30 AM 32.0 °F 23.0 °F 30.2 °F 93% 29.74 in 3.0 mi East 11.5 mph 21.9 mph 0.00 in   Overcast
11:54 AM 32.0 °F 21.6 °F 30.0 °F 92% 29.78 in 2.5 mi East 15.0 mph 25.3 mph 0.00 in   Overcast
12:15 PM 32.0 °F 22.5 °F 30.2 °F 93% 29.73 in 1.8 mi East 12.7 mph 24.2 mph N/A   Overcast
12:23 PM 32.0 °F 22.5 °F 30.2 °F 93% 29.73 in 2.0 mi East 12.7 mph 24.2 mph N/A   Overcast
12:54 PM 32.0 °F 20.5 °F 30.0 °F 92% 29.76 in 2.0 mi East 18.4 mph 25.3 mph N/A   Overcast
1:15 PM 32.0 °F 21.6 °F 30.2 °F 93% 29.71 in 3.0 mi East 15.0 mph 27.6 mph N/A   Overcast
1:54 PM 32.0 °F 22.1 °F 28.9 °F 88% 29.75 in 2.5 mi East 13.8 mph - 0.00 in Snow Light Snow
2:09 PM 32.0 °F 21.6 °F 28.4 °F 87% 29.71 in 1.5 mi East 15.0 mph - 0.00 in Snow Light Snow
2:22 PM 32.0 °F 22.1 °F 28.4 °F 87% 29.71 in 1.0 mi East 13.8 mph 20.7 mph 0.00 in Snow Light Snow
2:29 PM 32.0 °F 22.1 °F 28.4 °F 87% 29.72 in 0.8 mi East 13.8 mph 20.7 mph 0.00 in Snow Light Snow
2:54 PM 32.0 °F 24.2 °F 28.9 °F 88% 29.78 in 0.5 mi East 9.2 mph - 0.01 in Fog , Snow Snow
3:12 PM 30.2 °F 20.8 °F 30.2 °F 100% 29.74 in 0.2 mi East 11.5 mph - 0.03 in Fog , Snow Heavy Snow
3:54 PM 30.9 °F 21.2 °F 28.9 °F 92% 29.77 in 0.2 mi East 12.7 mph - 0.05 in Fog , Snow Snow
4:17 PM 30.2 °F 18.5 °F 28.4 °F 93% 29.73 in 0.5 mi East 17.3 mph 24.2 mph 0.00 in Fog , Snow Snow
4:36 PM 30.2 °F 18.9 °F 28.4 °F 93% 29.72 in 1.2 mi ENE 16.1 mph 23.0 mph 0.00 in Snow Light Snow
4:47 PM 30.2 °F 18.1 °F 28.4 °F 93% 29.73 in 2.5 mi East 18.4 mph 26.5 mph 0.00 in Snow Light Snow
4:54 PM 30.0 °F 18.7 °F 28.0 °F 92% 29.78 in 4.0 mi East 16.1 mph 25.3 mph 0.00 in Snow Light Snow
5:30 PM 30.2 °F 18.5 °F 26.6 °F 86% 29.74 in 8.0 mi East 17.3 mph - 0.00 in   Overcast
5:54 PM 30.0 °F 20.0 °F 27.0 °F 88% 29.79 in 7.0 mi East 12.7 mph 23.0 mph 0.00 in   Overcast
6:03 PM 30.2 °F 19.3 °F 26.6 °F 86% 29.74 in 6.0 mi East 15.0 mph - 0.00 in Rain Light Freezing Rain
6:35 PM 30.2 °F 18.9 °F 26.6 °F 86% 29.75 in 7.0 mi East 16.1 mph - 0.00 in   Overcast
6:54 PM 30.0 °F 19.5 °F 27.0 °F 88% 29.81 in 10.0 mi East 13.8 mph - 0.00 in   Overcast
7:54 PM 30.0 °F 20.0 °F 27.0 °F 88% 29.81 in 10.0 mi East 12.7 mph - N/A   Overcast
8:54 PM 30.0 °F 19.5 °F 27.0 °F 88% 29.82 in 8.0 mi East 13.8 mph - N/A   Overcast
9:54 PM 28.9 °F 18.6 °F 27.0 °F 92% 29.82 in 4.0 mi East 12.7 mph - N/A   Overcast
10:46 PM 28.4 °F 17.0 °F 26.6 °F 93% 29.76 in 2.5 mi ENE 15.0 mph - N/A   Overcast
10:54 PM 28.9 °F 19.8 °F 26.1 °F 89% 29.82 in 3.0 mi ENE 10.4 mph - N/A   Overcast
11:22 PM 28.4 °F 18.0 °F 26.6 °F 93% 29.77 in 3.0 mi East 12.7 mph - N/A   Overcast
11:54 PM 28.9 °F 19.2 °F 27.0 °F 92% 29.82 in 3.0 mi ENE 11.5 mph - N/A   Overcast